�������l�o���
Date,Time,MP-1(��Sv/h),MP-2(��Sv/h),MP-3(��Sv/h),MP-4(��Sv/h),MP-5(��Sv/h),MP-6(��Sv/h),MP-7(��Sv/h),MP-8(��Sv/h),����,����(m/s),���J
2021/05/14,00:00,0.651,0.963,0.600,1.181,0.836,0.375,0.659,0.617,��쐼,4.9,��
2021/05/14,00:10,0.650,0.962,0.600,1.182,0.837,0.377,0.658,0.617,��,4.9,��
2021/05/14,00:20,0.651,0.962,0.601,1.182,0.835,0.375,0.658,0.615,��,4.1,��
2021/05/14,00:30,0.649,0.962,0.601,1.182,0.837,0.375,0.659,0.616,��,4.0,��
2021/05/14,00:40,0.650,0.963,0.600,1.181,0.836,0.375,0.659,0.616,��,3.0,��
2021/05/14,00:50,0.652,0.961,0.601,1.181,0.834,0.377,0.659,0.616,��,3.0,��
2021/05/14,01:00,0.650,0.963,0.601,1.180,0.838,0.374,0.659,0.615,��,3.3,��
2021/05/14,01:10,0.651,0.962,0.599,1.179,0.837,0.374,0.658,0.615,��,4.1,��
2021/05/14,01:20,0.651,0.960,0.600,1.179,0.837,0.376,0.658,0.615,��쓌,4.3,��
2021/05/14,01:30,0.651,0.960,0.599,1.182,0.834,0.376,0.658,0.617,��쓌,4.6,��
2021/05/14,01:40,0.651,0.961,0.598,1.181,0.834,0.375,0.657,0.615,��쓌,4.2,��
2021/05/14,01:50,0.650,0.962,0.601,1.180,0.837,0.377,0.660,0.614,��쓌,4.9,��
2021/05/14,02:00,0.653,0.960,0.600,1.182,0.834,0.376,0.661,0.617,��,4.3,��
2021/05/14,02:10,0.650,0.961,0.599,1.178,0.833,0.375,0.661,0.615,��쓌,4.9,��
2021/05/14,02:20,0.651,0.962,0.599,1.179,0.833,0.376,0.660,0.615,��쓌,5.3,��
2021/05/14,02:30,0.650,0.960,0.599,1.180,0.834,0.376,0.661,0.615,��쓌,5.6,��
2021/05/14,02:40,0.651,0.962,0.597,1.178,0.834,0.377,0.660,0.616,��쓌,3.2,��
2021/05/14,02:50,0.649,0.961,0.600,1.178,0.835,0.376,0.660,0.615,��,3.7,��
2021/05/14,03:00,0.649,0.962,0.599,1.181,0.837,0.376,0.660,0.615,��,3.5,��
2021/05/14,03:10,0.651,0.960,0.600,1.183,0.839,0.377,0.660,0.615,��,3.8,��
2021/05/14,03:20,0.650,0.963,0.600,1.181,0.838,0.377,0.661,0.615,��,3.8,��
2021/05/14,03:30,0.650,0.961,0.600,1.179,0.837,0.377,0.659,0.616,��,3.0,��
2021/05/14,03:40,0.649,0.962,0.600,1.182,0.837,0.378,0.661,0.616,��,2.9,��
2021/05/14,03:50,0.650,0.963,0.598,1.180,0.838,0.377,0.662,0.617,��,1.5,��
2021/05/14,04:00,0.651,0.963,0.600,1.183,0.838,0.376,0.660,0.616,��,1.5,��
2021/05/14,04:10,0.651,0.960,0.600,1.182,0.840,0.377,0.663,0.615,��,1.7,��
2021/05/14,04:20,0.650,0.960,0.600,1.181,0.838,0.378,0.662,0.616,��쐼,0.9,��
2021/05/14,04:30,0.649,0.963,0.601,1.179,0.836,0.377,0.661,0.615,��,1.2,��
2021/05/14,04:40,0.652,0.960,0.600,1.181,0.838,0.377,0.662,0.615,���k��,1.1,��
2021/05/14,04:50,0.652,0.961,0.598,1.180,0.838,0.378,0.659,0.617,�k��,0.9,��
2021/05/14,05:00,0.649,0.961,0.600,1.182,0.837,0.379,0.660,0.615,�k�k��,1.7,��
2021/05/14,05:10,0.648,0.962,0.601,1.181,0.836,0.377,0.661,0.615,�k�k��,1.7,��
2021/05/14,05:20,0.650,0.962,0.601,1.182,0.836,0.378,0.661,0.617,�k�k��,1.5,��
2021/05/14,05:30,0.651,0.962,0.599,1.180,0.837,0.378,0.661,0.617,�k��,1.2,��
2021/05/14,05:40,0.650,0.962,0.598,1.180,0.836,0.377,0.661,0.616,��,1.1,��
2021/05/14,05:50,0.652,0.960,0.599,1.181,0.834,0.377,0.661,0.616,�쐼,0.6,��
2021/05/14,06:00,0.652,0.960,0.598,1.182,0.837,0.378,0.661,0.617,�쐼,1.2,��
2021/05/14,06:10,0.652,0.963,0.601,1.179,0.836,0.376,0.661,0.617,��쐼,0.9,��
2021/05/14,06:20,0.652,0.961,0.601,1.182,0.837,0.377,0.662,0.616,���쐼,0.9,��
2021/05/14,06:30,0.651,0.961,0.599,1.181,0.836,0.379,0.662,0.616,�쐼,0.9,��
2021/05/14,06:40,0.651,0.960,0.601,1.182,0.836,0.377,0.661,0.617,�쐼,0.6,��
2021/05/14,06:50,0.652,0.958,0.600,1.180,0.837,0.377,0.662,0.617,-,CALM,��
2021/05/14,07:00,0.650,0.957,0.600,1.182,0.836,0.376,0.662,0.616,�k��,1.1,��
2021/05/14,07:10,0.651,0.958,0.599,1.181,0.837,0.375,0.662,0.618,-,CALM,��
2021/05/14,07:20,0.651,0.956,0.600,1.181,0.839,0.375,0.662,0.617,-,CALM,��
2021/05/14,07:30,0.650,0.959,0.601,1.182,0.838,0.375,0.661,0.617,-,CALM,��
2021/05/14,07:40,0.650,0.960,0.599,1.182,0.837,0.376,0.659,0.616,-,CALM,��
2021/05/14,07:50,0.650,0.960,0.600,1.181,0.836,0.375,0.661,0.614,-,CALM,��
2021/05/14,08:00,0.652,0.959,0.599,1.182,0.835,0.374,0.659,0.615,�k�k��,0.8,��
2021/05/14,08:10,0.652,0.960,0.601,1.181,0.838,0.375,0.658,0.614,��,0.9,��
2021/05/14,08:20,0.649,0.956,0.600,1.182,0.838,0.376,0.661,0.614,��,1.7,��
2021/05/14,08:30,0.650,0.958,0.601,1.182,0.835,0.375,0.659,0.612,��,1.7,��
2021/05/14,08:40,0.650,0.957,0.600,1.181,0.837,0.376,0.658,0.614,���쓌,0.6,��
2021/05/14,08:50,0.650,0.959,0.600,1.181,0.835,0.376,0.660,0.614,���쓌,2.3,��
2021/05/14,09:00,0.650,0.958,0.599,1.182,0.837,0.376,0.660,0.615,���쓌,2.9,��
2021/05/14,09:10,0.649,0.957,0.599,1.183,0.836,0.377,0.660,0.614,���쓌,1.7,��
2021/05/14,09:20,0.650,0.957,0.599,1.183,0.836,0.375,0.659,0.614,���쓌,2.0,��
2021/05/14,09:30,0.650,0.957,0.598,1.181,0.836,0.376,0.659,0.614,��,1.7,��
2021/05/14,09:40,0.651,0.957,0.599,1.182,0.836,0.376,0.658,0.614,���쓌,2.0,��
2021/05/14,09:50,0.653,0.956,0.599,1.181,0.835,0.376,0.660,0.614,���k��,1.9,��
2021/05/14,10:00,0.651,0.959,0.597,1.182,0.837,0.377,0.661,0.614,�k��,1.5,��
2021/05/14,10:10,0.650,0.956,0.598,1.183,0.837,0.375,0.660,0.614,�k��,2.5,��
2021/05/14,10:20,0.649,0.958,0.599,1.181,0.837,0.377,0.660,0.614,�k��,1.7,��
2021/05/14,10:30,0.650,0.958,0.596,1.183,0.838,0.376,0.659,0.612,�k��,1.7,��
2021/05/14,10:40,0.649,0.957,0.599,1.181,0.836,0.376,0.660,0.615,�k�k��,2.0,��
2021/05/14,10:50,0.651,0.951,0.598,1.183,0.836,0.375,0.658,0.615,�k��,1.9,��
2021/05/14,11:00,0.651,0.953,0.600,1.181,0.836,0.376,0.659,0.615,�k�k��,1.5,��
2021/05/14,11:10,0.650,0.958,0.600,1.183,0.837,0.375,0.661,0.615,���k��,1.4,��
2021/05/14,11:20,0.650,0.957,0.601,1.178,0.838,0.376,0.659,0.614,���k��,2.0,��
2021/05/14,11:30,0.651,0.959,0.599,1.183,0.838,0.377,0.659,0.614,���k��,2.0,��
2021/05/14,11:40,0.653,0.955,0.597,1.179,0.834,0.375,0.660,0.614,�k��,2.8,��
2021/05/14,11:50,0.654,0.954,0.599,1.180,0.837,0.377,0.660,0.613,�k��,3.4,��
2021/05/14,12:00,0.652,0.962,0.600,1.178,0.838,0.377,0.661,0.614,�k��,3.8,��
2021/05/14,12:10,0.653,0.961,0.600,1.180,0.838,0.376,0.664,0.615,�k��,3.5,��
2021/05/14,12:20,0.653,0.959,0.599,1.183,0.839,0.375,0.661,0.614,�k��,2.8,��
2021/05/14,12:30,0.650,0.964,0.599,1.181,0.837,0.377,0.661,0.615,�k�k��,3.9,��
2021/05/14,12:40,0.651,0.960,0.600,1.180,0.838,0.377,0.660,0.614,�k��,3.6,��
2021/05/14,12:50,0.651,0.960,0.601,1.181,0.838,0.375,0.661,0.614,�k��,4.3,��
2021/05/14,13:00,0.651,0.961,0.600,1.182,0.839,0.376,0.661,0.615,�k�k��,3.4,��
2021/05/14,13:10,0.651,0.961,0.602,1.181,0.839,0.377,0.661,0.617,�k��,3.2,��
2021/05/14,13:20,0.649,0.959,0.599,1.180,0.839,0.377,0.661,0.614,�k�k��,3.4,��
2021/05/14,13:30,0.650,0.957,0.600,1.180,0.835,0.375,0.661,0.616,�k��,2.3,��
2021/05/14,13:40,0.648,0.960,0.601,1.182,0.834,0.377,0.662,0.615,�k��,2.6,��
2021/05/14,13:50,0.650,0.958,0.600,1.181,0.837,0.375,0.662,0.615,�k��,2.8,��
2021/05/14,14:00,0.650,0.959,0.601,1.181,0.838,0.376,0.662,0.614,�k��,2.3,��
2021/05/14,14:10,0.651,0.960,0.600,1.181,0.841,0.377,0.659,0.616,�k��,2.3,��
2021/05/14,14:20,0.652,0.959,0.600,1.182,0.840,0.376,0.661,0.614,�k��,3.2,��
2021/05/14,14:30,0.652,0.960,0.600,1.183,0.840,0.377,0.661,0.614,���k��,2.6,��
2021/05/14,14:40,0.654,0.960,0.601,1.182,0.839,0.377,0.660,0.615,��,1.5,��
2021/05/14,14:50,0.652,0.960,0.600,1.182,0.840,0.377,0.662,0.614,-,CALM,��
2021/05/14,15:00,0.654,0.962,0.601,1.183,0.839,0.377,0.661,0.615,-,CALM,��
2021/05/14,15:10,0.651,0.961,0.601,1.183,0.839,0.377,0.662,0.616,-,CALM,��
2021/05/14,15:20,0.653,0.960,0.601,1.183,0.839,0.376,0.661,0.615,��쓌,0.9,��
2021/05/14,15:30,0.652,0.960,0.598,1.184,0.840,0.378,0.662,0.615,���쓌,0.8,��
2021/05/14,15:40,0.653,0.959,0.600,1.184,0.838,0.375,0.661,0.615,��,0.6,��
2021/05/14,15:50,0.652,0.962,0.602,1.182,0.839,0.377,0.662,0.614,�k��,1.2,��
2021/05/14,16:00,0.652,0.963,0.601,1.183,0.841,0.376,0.661,0.616,�k�k��,2.0,��
2021/05/14,16:10,0.653,0.963,0.601,1.183,0.840,0.378,0.661,0.615,���k��,1.7,��
2021/05/14,16:20,0.653,0.965,0.601,1.184,0.841,0.377,0.662,0.614,���k��,2.0,��
2021/05/14,16:30,0.650,0.965,0.601,1.183,0.840,0.376,0.661,0.614,��,1.4,��
2021/05/14,16:40,0.652,0.962,0.600,1.183,0.839,0.376,0.661,0.615,��,1.4,��
2021/05/14,16:50,0.652,0.960,0.602,1.182,0.839,0.377,0.661,0.615,��,1.5,��
2021/05/14,17:00,0.651,0.964,0.600,1.181,0.837,0.377,0.661,0.614,��,2.2,��
2021/05/14,17:10,0.652,0.964,0.599,1.181,0.838,0.378,0.661,0.613,���쓌,1.7,��
2021/05/14,17:20,0.650,0.963,0.599,1.182,0.839,0.378,0.660,0.616,��쓌,2.0,��
2021/05/14,17:30,0.649,0.966,0.600,1.181,0.839,0.377,0.660,0.614,���쓌,1.9,��
2021/05/14,17:40,0.647,0.964,0.599,1.181,0.836,0.376,0.660,0.616,�쓌,2.3,��
2021/05/14,17:50,0.648,0.965,0.599,1.182,0.839,0.377,0.660,0.615,��쓌,1.5,��
2021/05/14,18:00,0.648,0.966,0.602,1.184,0.840,0.376,0.661,0.614,��쓌,1.5,��
2021/05/14,18:10,0.652,0.965,0.600,1.183,0.837,0.375,0.659,0.614,�쓌,1.7,��
2021/05/14,18:20,0.654,0.968,0.601,1.184,0.837,0.379,0.660,0.616,��,2.3,��
2021/05/14,18:30,0.654,0.969,0.599,1.183,0.840,0.376,0.661,0.616,��,2.6,��
2021/05/14,18:40,0.653,0.967,0.600,1.184,0.838,0.376,0.661,0.617,��,2.2,��
2021/05/14,18:50,0.653,0.967,0.603,1.184,0.838,0.377,0.660,0.617,�쓌,1.9,��
2021/05/14,19:00,0.655,0.966,0.601,1.185,0.840,0.376,0.662,0.616,�쓌,2.2,��
2021/05/14,19:10,0.656,0.966,0.603,1.184,0.840,0.378,0.663,0.616,�쓌,1.9,��
2021/05/14,19:20,0.654,0.967,0.602,1.186,0.839,0.377,0.662,0.616,��쓌,1.2,��
2021/05/14,19:30,0.653,0.964,0.601,1.186,0.839,0.379,0.663,0.617,�쓌,1.4,��
2021/05/14,19:40,0.653,0.964,0.600,1.184,0.841,0.377,0.661,0.617,��쓌,1.4,��
2021/05/14,19:50,0.651,0.967,0.600,1.186,0.840,0.379,0.662,0.616,���쓌,1.7,��
2021/05/14,20:00,0.650,0.966,0.600,1.185,0.838,0.377,0.660,0.616,��,2.5,��
2021/05/14,20:10,0.654,0.964,0.599,1.183,0.841,0.377,0.661,0.617,���k��,2.6,��
2021/05/14,20:20,0.652,0.966,0.601,1.184,0.841,0.378,0.661,0.616,�k��,2.3,��
2021/05/14,20:30,0.652,0.965,0.602,1.185,0.840,0.378,0.662,0.617,�k�k��,2.0,��
2021/05/14,20:40,0.651,0.965,0.601,1.183,0.841,0.377,0.663,0.616,�k�k��,2.3,��
2021/05/14,20:50,0.651,0.967,0.600,1.183,0.839,0.375,0.661,0.615,�k��,1.4,��
2021/05/14,21:00,0.651,0.967,0.600,1.185,0.840,0.376,0.662,0.616,�k�k��,1.1,��
2021/05/14,21:10,0.652,0.966,0.602,1.184,0.840,0.375,0.663,0.615,�k�k��,1.5,��
2021/05/14,21:20,0.652,0.963,0.601,1.183,0.839,0.376,0.660,0.617,���k��,0.8,��
2021/05/14,21:30,0.651,0.965,0.601,1.181,0.838,0.377,0.661,0.616,���k��,0.8,��
2021/05/14,21:40,0.650,0.964,0.603,1.186,0.842,0.377,0.661,0.616,�k��,0.6,��
2021/05/14,21:50,0.653,0.963,0.600,1.181,0.841,0.376,0.661,0.618,�k�k��,1.1,��
2021/05/14,22:00,0.652,0.964,0.601,1.182,0.840,0.377,0.660,0.615,�k��,1.2,��
2021/05/14,22:10,0.652,0.965,0.600,1.183,0.841,0.376,0.659,0.616,�k��,2.0,��
2021/05/14,22:20,0.651,0.963,0.602,1.184,0.840,0.375,0.660,0.615,�k�k��,2.0,��
2021/05/14,22:30,0.652,0.963,0.601,1.183,0.840,0.378,0.659,0.616,�k,2.2,��
2021/05/14,22:40,0.653,0.962,0.600,1.183,0.839,0.377,0.659,0.616,�k,2.9,��
2021/05/14,22:50,0.653,0.965,0.600,1.183,0.839,0.376,0.660,0.615,�k,2.6,��
2021/05/14,23:00,0.652,0.965,0.599,1.184,0.841,0.377,0.659,0.617,�k,3.0,��
2021/05/14,23:10,0.652,0.963,0.601,1.183,0.840,0.377,0.660,0.617,�k�k��,3.5,��
2021/05/14,23:20,0.649,0.962,0.602,1.183,0.838,0.377,0.661,0.616,�k�k��,4.0,��
2021/05/14,23:30,0.650,0.963,0.600,1.184,0.838,0.376,0.659,0.616,�k��,3.8,��
2021/05/14,23:40,0.652,0.964,0.601,1.184,0.840,0.377,0.660,0.616,�k��,2.3,��
2021/05/14,23:50,0.653,0.965,0.600,1.183,0.840,0.377,0.661,0.617,�k��,2.3,��
